Tracking 19709 objects as of 18-Jun-2019
HD Live streaming from Space Station
objects crossing your sky now

LEMUR 2 DAISY-HARPER

Track LEMUR 2 DAISY-HARPER now!
10-day predictions
LEMUR 2 DAISY-HARPER is classified as:


NORAD ID: 43889
Int'l Code: 2018-111P
Perigee: 574.9 km
Apogee: 592.0 km
Inclination: 97.7 °
Period: 96.2 minutes
Semi major axis: 6954 km
RCS: Unknown
Launch date: December 27, 2018
Source: United States (US)
Launch site: VOSTOCHNY COSMODROME (VOSTO)
aabbcc
Your satellite tracking list
Your tracking list is empty




NASA's NSSDC Master Catalog

Two Line Element Set (TLE):
1 43889U 18111P   19168.81690427  .00000605  00000-0  57650-4 0  9994
2 43889  97.7221  77.1624 0012256  30.6469 329.5467 14.96948945 25814
Source of the keplerian elements: AFSPC